Back to catalog

CZ-6A DEB

AlivePO
NORAD 60871·DEBRIS·🇨🇳 China

Launched Aug 6, 2024 from Taiyuan Satellite Launch Center

Loading…

Next Passes (next 24 hours)

TLE

FreshSource: Space-Track

Epoch: Sep 14, 2026, 06:50 UTC

1 60871U 24140KA  26257.28521151  .00002208  00000-0  44460-3 0  9993
2 60871  89.0570 265.3575 0090449 256.5308 102.5812 14.58663054109215

Track CZ-6A DEB in real time with AllMySat

Download on the App Store